Time,TemperatureF,DewpointF,PressureIn,WindDirection,WindDirectionDegrees,WindSpeedMPH,WindSpeedGustMPH,Humidity,HourlyPrecipIn,Conditions,Clouds,dailyrainin,SoftwareType,DateUTC
2013-03-20 00:00:00,37.0,35.4,29.79,WNW,297,7.0,9.0,94,0.00,,,0.00,meteohub,2013-03-20 04:00:00,
2013-03-20 00:05:00,37.0,35.2,29.79,WNW,293,4.0,8.0,93,0.00,,,0.00,meteohub,2013-03-20 04:05:00,
2013-03-20 00:10:00,37.0,35.2,29.80,WNW,293,5.0,10.0,93,0.00,,,0.00,meteohub,2013-03-20 04:10:00,
2013-03-20 00:15:00,37.2,35.6,29.80,WNW,288,4.0,10.0,94,0.00,,,0.00,meteohub,2013-03-20 04:15:00,
2013-03-20 00:20:00,37.2,35.4,29.81,West,281,5.0,8.0,93,0.00,,,0.00,meteohub,2013-03-20 04:20:00,
2013-03-20 00:25:00,37.2,35.4,29.81,WNW,287,4.0,8.0,93,0.00,,,0.00,meteohub,2013-03-20 04:25:00,
2013-03-20 00:30:00,37.2,35.4,29.80,WNW,291,4.0,7.0,93,0.00,,,0.00,meteohub,2013-03-20 04:30:00,
2013-03-20 00:35:00,37.2,35.1,29.80,WNW,284,4.0,7.0,92,0.00,,,0.00,meteohub,2013-03-20 04:35:00,
2013-03-20 00:40:00,37.2,34.9,29.80,WNW,291,5.0,7.0,91,0.00,,,0.00,meteohub,2013-03-20 04:40:00,
2013-03-20 00:45:00,37.2,34.5,29.81,WNW,284,5.0,8.0,90,0.00,,,0.00,meteohub,2013-03-20 04:45:00,
2013-03-20 00:50:00,37.2,34.3,29.81,WNW,291,5.0,11.0,89,0.00,,,0.00,meteohub,2013-03-20 04:50:00,
2013-03-20 00:55:00,37.2,33.4,29.81,WNW,288,7.0,11.0,86,0.00,,,0.00,meteohub,2013-03-20 04:55:00,
2013-03-20 01:00:00,37.4,32.4,29.81,WNW,291,6.0,13.0,82,0.00,,,0.00,meteohub,2013-03-20 05:00:00,
2013-03-20 01:05:00,37.4,31.8,29.81,NW,308,8.0,13.0,80,0.00,,,0.00,meteohub,2013-03-20 05:05:00,
2013-03-20 01:10:00,37.2,30.7,29.81,WNW,288,15.0,20.0,77,0.00,,,0.00,meteohub,2013-03-20 05:10:00,
2013-03-20 01:15:00,37.2,30.0,29.81,WNW,293,11.0,20.0,75,0.00,,,0.00,meteohub,2013-03-20 05:15:00,
2013-03-20 01:20:00,37.2,30.0,29.81,WNW,295,10.0,20.0,75,0.00,,,0.00,meteohub,2013-03-20 05:20:00,
2013-03-20 01:26:00,37.2,30.0,29.82,NW,321,12.0,18.0,75,0.00,,,0.00,meteohub,2013-03-20 05:26:00,
2013-03-20 01:31:00,37.2,29.7,29.82,NW,305,7.0,16.0,74,0.00,,,0.00,meteohub,2013-03-20 05:31:00,
2013-03-20 01:36:00,37.0,29.8,29.82,WNW,287,10.0,15.0,75,0.00,,,0.00,meteohub,2013-03-20 05:36:00,
2013-03-20 01:41:00,37.0,28.9,29.82,WNW,293,10.0,14.0,72,0.00,,,0.00,meteohub,2013-03-20 05:41:00,
2013-03-20 01:46:00,37.0,28.9,29.82,WNW,303,11.0,17.0,72,0.00,,,0.00,meteohub,2013-03-20 05:46:00,
2013-03-20 01:51:00,37.0,28.9,29.83,NW,308,8.0,17.0,72,0.00,,,0.00,meteohub,2013-03-20 05:51:00,
2013-03-20 01:56:00,36.9,29.7,29.83,NW,308,9.0,17.0,75,0.00,,,0.00,meteohub,2013-03-20 05:56:00,
2013-03-20 02:01:00,36.9,27.0,29.83,NW,311,13.0,16.0,67,0.00,,,0.00,meteohub,2013-03-20 06:01:00,
2013-03-20 02:06:00,36.9,28.0,29.83,WNW,297,10.0,19.0,70,0.00,,,0.00,meteohub,2013-03-20 06:06:00,
2013-03-20 02:11:00,36.9,28.4,29.83,NW,314,13.0,19.0,71,0.00,,,0.00,meteohub,2013-03-20 06:11:00,
2013-03-20 02:16:00,36.7,30.7,29.83,NW,322,8.0,16.0,79,0.00,,,0.00,meteohub,2013-03-20 06:16:00,
2013-03-20 02:21:00,36.3,31.1,29.83,NW,314,7.0,16.0,81,0.00,,,0.00,meteohub,2013-03-20 06:21:00,
2013-03-20 02:26:00,36.0,30.7,29.83,WNW,300,6.0,16.0,81,0.00,,,0.00,meteohub,2013-03-20 06:26:00,
2013-03-20 02:32:00,35.8,30.2,29.84,NW,304,5.0,16.0,80,0.00,,,0.00,meteohub,2013-03-20 06:32:00,
2013-03-20 02:37:00,35.6,30.4,29.84,NW,309,7.0,16.0,81,0.00,,,0.00,meteohub,2013-03-20 06:37:00,
2013-03-20 02:42:00,35.4,30.2,29.85,WNW,297,5.0,11.0,81,0.00,,,0.00,meteohub,2013-03-20 06:42:00,
2013-03-20 02:47:00,35.4,30.7,29.85,NW,321,6.0,13.0,83,0.00,,,0.00,meteohub,2013-03-20 06:47:00,
2013-03-20 02:52:00,35.2,30.4,29.85,NW,318,7.0,13.0,82,0.00,,,0.00,meteohub,2013-03-20 06:52:00,
2013-03-20 02:57:00,35.2,30.6,29.85,NW,310,7.0,13.0,83,0.00,,,0.00,meteohub,2013-03-20 06:57:00,
2013-03-20 03:02:00,35.1,29.8,29.85,NW,318,6.0,11.0,81,0.00,,,0.00,meteohub,2013-03-20 07:02:00,
2013-03-20 03:07:00,35.1,30.2,29.85,NW,318,7.0,12.0,82,0.00,,,0.00,meteohub,2013-03-20 07:07:00,
2013-03-20 03:12:00,35.1,30.2,29.85,NW,307,7.0,12.0,82,0.00,,,0.00,meteohub,2013-03-20 07:12:00,
2013-03-20 03:17:00,35.1,30.2,29.85,WNW,300,7.0,12.0,82,0.00,,,0.00,meteohub,2013-03-20 07:17:00,
2013-03-20 03:22:00,35.1,30.4,29.85,WNW,298,7.0,12.0,83,0.00,,,0.00,meteohub,2013-03-20 07:22:00,
2013-03-20 03:27:00,34.9,30.0,29.85,NW,314,6.0,14.0,82,0.00,,,0.00,meteohub,2013-03-20 07:27:00,
2013-03-20 03:32:00,34.9,30.2,29.85,NNW,345,5.0,14.0,83,0.00,,,0.00,meteohub,2013-03-20 07:32:00,
2013-03-20 03:37:00,34.9,30.2,29.85,NW,308,5.0,14.0,83,0.00,,,0.00,meteohub,2013-03-20 07:37:00,
2013-03-20 03:42:00,34.7,28.9,29.85,West,277,4.0,12.0,79,0.00,,,0.00,meteohub,2013-03-20 07:42:00,
2013-03-20 03:47:00,34.7,27.9,29.86,WNW,298,5.0,13.0,76,0.00,,,0.00,meteohub,2013-03-20 07:47:00,
2013-03-20 03:52:00,34.9,27.1,29.86,NW,308,6.0,13.0,73,0.00,,,0.00,meteohub,2013-03-20 07:52:00,
2013-03-20 03:57:00,34.9,26.8,29.86,WNW,293,6.0,13.0,72,0.00,,,0.00,meteohub,2013-03-20 07:57:00,
2013-03-20 04:02:00,34.9,25.0,29.86,WNW,301,11.0,12.0,67,0.00,,,0.00,meteohub,2013-03-20 08:02:00,
2013-03-20 04:08:00,34.7,24.8,29.86,WNW,300,11.0,14.0,67,0.00,,,0.00,meteohub,2013-03-20 08:08:00,
2013-03-20 04:13:00,34.7,25.9,29.86,WNW,295,8.0,15.0,70,0.00,,,0.00,meteohub,2013-03-20 08:13:00,
2013-03-20 04:18:00,34.5,24.3,29.86,NW,324,8.0,15.0,66,0.00,,,0.00,meteohub,2013-03-20 08:18:00,
2013-03-20 04:23:00,34.5,25.7,29.86,WNW,298,5.0,15.0,70,0.00,,,0.00,meteohub,2013-03-20 08:23:00,
2013-03-20 04:28:00,34.5,25.3,29.86,WNW,295,6.0,15.0,69,0.00,,,0.00,meteohub,2013-03-20 08:28:00,
2013-03-20 04:33:00,34.5,25.7,29.86,NW,309,5.0,15.0,70,0.00,,,0.00,meteohub,2013-03-20 08:33:00,
2013-03-20 04:38:00,34.3,25.5,29.86,WNW,302,7.0,12.0,70,0.00,,,0.00,meteohub,2013-03-20 08:38:00,
2013-03-20 04:43:00,34.3,24.8,29.87,NW,311,14.0,16.0,68,0.00,,,0.00,meteohub,2013-03-20 08:43:00,
2013-03-20 04:48:00,34.3,25.2,29.87,WNW,287,8.0,16.0,69,0.00,,,0.00,meteohub,2013-03-20 08:48:00,
2013-03-20 04:53:00,34.3,24.8,29.87,WSW,255,8.0,16.0,68,0.00,,,0.00,meteohub,2013-03-20 08:53:00,
2013-03-20 04:58:00,34.3,25.9,29.87,NW,307,10.0,16.0,71,0.00,,,0.00,meteohub,2013-03-20 08:58:00,
2013-03-20 05:03:00,34.2,24.6,29.87,NW,307,9.0,16.0,68,0.00,,,0.00,meteohub,2013-03-20 09:03:00,
2013-03-20 05:08:00,34.2,25.3,29.87,West,278,8.0,16.0,70,0.00,,,0.00,meteohub,2013-03-20 09:08:00,
2013-03-20 05:13:00,34.2,25.0,29.87,WNW,282,8.0,14.0,69,0.00,,,0.00,meteohub,2013-03-20 09:13:00,
2013-03-20 05:18:00,34.2,25.3,29.87,WNW,290,4.0,14.0,70,0.00,,,0.00,meteohub,2013-03-20 09:18:00,
2013-03-20 05:23:00,34.2,24.4,29.87,WNW,292,7.0,14.0,67,0.00,,,0.00,meteohub,2013-03-20 09:23:00,
2013-03-20 05:28:00,34.2,25.7,29.87,WNW,287,6.0,13.0,71,0.00,,,0.00,meteohub,2013-03-20 09:28:00,
2013-03-20 05:33:00,34.0,25.2,29.88,WNW,294,9.0,12.0,70,0.00,,,0.00,meteohub,2013-03-20 09:33:00,
2013-03-20 05:38:00,34.0,25.2,29.88,WNW,300,10.0,12.0,70,0.00,,,0.00,meteohub,2013-03-20 09:38:00,
2013-03-20 05:43:00,34.0,25.9,29.88,West,281,8.0,15.0,72,0.00,,,0.00,meteohub,2013-03-20 09:43:00,
2013-03-20 05:48:00,34.0,25.5,29.88,WNW,284,7.0,15.0,71,0.00,,,0.00,meteohub,2013-03-20 09:48:00,
2013-03-20 05:53:00,34.2,26.1,29.88,WNW,290,6.0,15.0,72,0.00,,,0.00,meteohub,2013-03-20 09:53:00,
2013-03-20 05:58:00,34.2,26.4,29.88,WNW,292,7.0,13.0,73,0.00,,,0.00,meteohub,2013-03-20 09:58:00,
2013-03-20 06:03:00,34.2,26.8,29.88,WNW,283,9.0,19.0,74,0.00,,,0.00,meteohub,2013-03-20 10:03:00,
2013-03-20 06:08:00,34.3,25.5,29.88,WNW,295,8.0,19.0,70,0.00,,,0.00,meteohub,2013-03-20 10:08:00,
2013-03-20 06:13:00,34.3,25.9,29.88,West,280,11.0,19.0,71,0.00,,,0.00,meteohub,2013-03-20 10:13:00,
2013-03-20 06:18:00,34.3,24.8,29.88,WNW,298,9.0,14.0,68,0.00,,,0.00,meteohub,2013-03-20 10:18:00,
2013-03-20 06:23:00,34.3,25.9,29.88,WNW,284,8.0,15.0,71,0.00,,,0.00,meteohub,2013-03-20 10:23:00,
2013-03-20 06:28:00,34.2,26.1,29.88,West,273,9.0,15.0,72,0.00,,,0.00,meteohub,2013-03-20 10:28:00,
2013-03-20 06:33:00,34.2,25.3,29.88,West,266,7.0,12.0,70,0.00,,,0.00,meteohub,2013-03-20 10:33:00,
2013-03-20 06:38:00,33.3,24.8,29.88,WNW,302,11.0,12.0,71,0.00,,,0.00,meteohub,2013-03-20 10:38:00,
2013-03-20 06:43:00,33.3,24.8,29.88,WNW,302,11.0,12.0,71,0.00,,,0.00,meteohub,2013-03-20 10:43:00,
2013-03-20 06:48:00,33.3,24.8,29.88,North,-999,-999.0,12.0,71,0.00,,,0.00,meteohub,2013-03-20 10:48:00,
2013-03-20 07:26:00,34.0,26.2,29.88,North,-999,-999.0,-999.0,73,0.00,,,0.00,meteohub,2013-03-20 11:26:00,
2013-03-20 07:31:00,33.6,25.5,29.88,North,-999,-999.0,-999.0,72,0.00,,,0.00,meteohub,2013-03-20 11:31:00,
2013-03-20 07:36:00,34.0,27.1,29.88,WNW,287,11.0,11.0,76,0.00,,,0.00,meteohub,2013-03-20 11:36:00,
2013-03-20 07:41:00,34.3,26.2,29.88,WNW,285,10.0,13.0,72,0.00,,,0.00,meteohub,2013-03-20 11:41:00,
2013-03-20 07:47:00,34.5,26.4,29.88,West,281,12.0,14.0,72,0.00,,,0.00,meteohub,2013-03-20 11:47:00,
2013-03-20 07:52:00,34.9,26.8,29.88,West,281,10.0,14.0,72,0.00,,,0.00,meteohub,2013-03-20 11:52:00,
2013-03-20 07:57:00,34.5,26.1,29.88,WNW,300,7.0,14.0,71,0.00,,,0.00,meteohub,2013-03-20 11:57:00,
2013-03-20 08:02:00,34.9,26.1,29.88,WNW,294,11.0,13.0,70,0.00,,,0.00,meteohub,2013-03-20 12:02:00,
2013-03-20 08:07:00,34.9,26.1,29.88,WNW,293,13.0,15.0,70,0.00,,,0.00,meteohub,2013-03-20 12:07:00,
2013-03-20 08:12:00,35.1,26.6,29.87,West,274,9.0,15.0,71,0.00,,,0.00,meteohub,2013-03-20 12:12:00,
2013-03-20 08:17:00,35.1,26.2,29.87,WNW,288,8.0,15.0,70,0.00,,,0.00,meteohub,2013-03-20 12:17:00,
2013-03-20 08:22:00,35.1,25.2,29.87,West,277,8.0,14.0,67,0.00,,,0.00,meteohub,2013-03-20 12:22:00,
2013-03-20 08:27:00,35.1,25.5,29.88,WNW,287,8.0,14.0,68,0.00,,,0.00,meteohub,2013-03-20 12:27:00,
2013-03-20 08:32:00,35.1,24.8,29.88,NW,311,9.0,15.0,66,0.00,,,0.00,meteohub,2013-03-20 12:32:00,
2013-03-20 08:37:00,35.1,25.5,29.88,WNW,300,11.0,16.0,68,0.00,,,0.00,meteohub,2013-03-20 12:37:00,
2013-03-20 08:42:00,35.1,25.2,29.88,WNW,285,8.0,16.0,67,0.00,,,0.00,meteohub,2013-03-20 12:42:00,
2013-03-20 08:47:00,35.2,25.0,29.88,WNW,288,9.0,16.0,66,0.00,,,0.00,meteohub,2013-03-20 12:47:00,
2013-03-20 08:52:00,35.2,25.7,29.88,WSW,238,8.0,17.0,68,0.00,,,0.00,meteohub,2013-03-20 12:52:00,
2013-03-20 08:57:00,35.2,25.7,29.88,West,263,6.0,17.0,68,0.00,,,0.00,meteohub,2013-03-20 12:57:00,
2013-03-20 09:02:00,35.2,26.1,29.88,WNW,297,8.0,17.0,69,0.00,,,0.00,meteohub,2013-03-20 13:02:00,
2013-03-20 09:07:00,35.2,25.7,29.88,WNW,285,10.0,16.0,68,0.00,,,0.00,meteohub,2013-03-20 13:07:00,
2013-03-20 09:12:00,35.2,25.7,29.88,WNW,294,8.0,16.0,68,0.00,,,0.00,meteohub,2013-03-20 13:12:00,
2013-03-20 09:17:00,35.2,25.7,29.88,WNW,282,10.0,16.0,68,0.00,,,0.00,meteohub,2013-03-20 13:17:00,
2013-03-20 09:22:00,35.1,25.2,29.88,WNW,284,9.0,16.0,67,0.00,,,0.00,meteohub,2013-03-20 13:22:00,
2013-03-20 09:27:00,35.1,25.9,29.88,West,273,10.0,18.0,69,0.00,,,0.00,meteohub,2013-03-20 13:27:00,
2013-03-20 09:32:00,35.2,25.7,29.87,WNW,290,8.0,18.0,68,0.00,,,0.00,meteohub,2013-03-20 13:32:00,
2013-03-20 09:37:00,35.2,26.4,29.88,West,281,8.0,18.0,70,0.00,,,0.00,meteohub,2013-03-20 13:37:00,
2013-03-20 09:43:00,35.2,26.4,29.87,NW,311,9.0,16.0,70,0.00,,,0.00,meteohub,2013-03-20 13:43:00,
2013-03-20 09:48:00,35.2,25.7,29.88,WNW,287,7.0,16.0,68,0.00,,,0.00,meteohub,2013-03-20 13:48:00,
2013-03-20 09:53:00,35.2,26.4,29.88,WNW,284,8.0,16.0,70,0.00,,,0.00,meteohub,2013-03-20 13:53:00,
2013-03-20 09:58:00,35.4,26.6,29.88,West,274,8.0,15.0,70,0.00,,,0.00,meteohub,2013-03-20 13:58:00,
2013-03-20 10:03:00,35.4,25.5,29.88,WNW,288,7.0,15.0,67,0.00,,,0.00,meteohub,2013-03-20 14:03:00,
2013-03-20 10:08:00,35.4,25.9,29.88,West,278,8.0,13.0,68,0.00,,,0.00,meteohub,2013-03-20 14:08:00,
2013-03-20 10:13:00,35.4,24.8,29.88,WNW,302,8.0,15.0,65,0.00,,,0.00,meteohub,2013-03-20 14:13:00,
2013-03-20 10:18:00,35.4,26.2,29.88,WNW,290,8.0,15.0,69,0.00,,,0.00,meteohub,2013-03-20 14:18:00,
2013-03-20 10:23:00,35.4,25.9,29.88,West,260,9.0,15.0,68,0.00,,,0.00,meteohub,2013-03-20 14:23:00,
2013-03-20 10:28:00,35.6,26.1,29.88,West,281,9.0,15.0,68,0.00,,,0.00,meteohub,2013-03-20 14:28:00,
2013-03-20 10:33:00,35.8,26.6,29.88,WNW,283,12.0,14.0,69,0.00,,,0.00,meteohub,2013-03-20 14:33:00,
2013-03-20 10:38:00,36.0,26.8,29.88,West,280,9.0,14.0,69,0.00,,,0.00,meteohub,2013-03-20 14:38:00,
2013-03-20 10:43:00,36.0,26.8,29.88,WNW,291,8.0,14.0,69,0.00,,,0.00,meteohub,2013-03-20 14:43:00,
2013-03-20 10:48:00,36.0,26.4,29.88,West,278,10.0,13.0,68,0.00,,,0.00,meteohub,2013-03-20 14:48:00,
2013-03-20 10:53:00,36.1,26.2,29.88,WNW,291,7.0,11.0,67,0.00,,,0.00,meteohub,2013-03-20 14:53:00,
2013-03-20 10:58:00,36.1,25.5,29.88,West,274,9.0,13.0,65,0.00,,,0.00,meteohub,2013-03-20 14:58:00,
2013-03-20 11:03:00,36.1,26.2,29.88,WNW,290,8.0,13.0,67,0.00,,,0.00,meteohub,2013-03-20 15:03:00,
2013-03-20 11:08:00,36.1,25.2,29.89,NW,308,6.0,13.0,64,0.00,,,0.00,meteohub,2013-03-20 15:08:00,
2013-03-20 11:13:00,36.5,27.0,29.89,WNW,288,7.0,13.0,68,0.00,,,0.00,meteohub,2013-03-20 15:13:00,
2013-03-20 11:19:00,36.3,26.4,29.89,WNW,285,10.0,13.0,67,0.00,,,0.00,meteohub,2013-03-20 15:19:00,
2013-03-20 11:24:00,36.5,25.9,29.89,WNW,293,7.0,13.0,65,0.00,,,0.00,meteohub,2013-03-20 15:24:00,
2013-03-20 11:29:00,36.7,26.4,29.89,WNW,288,8.0,13.0,66,0.00,,,0.00,meteohub,2013-03-20 15:29:00,
2013-03-20 11:34:00,36.9,25.9,29.89,West,278,8.0,12.0,64,0.00,,,0.00,meteohub,2013-03-20 15:34:00,
2013-03-20 11:39:00,36.9,25.5,29.89,WNW,293,7.0,13.0,63,0.00,,,0.00,meteohub,2013-03-20 15:39:00,
2013-03-20 11:44:00,36.9,24.6,29.88,NW,308,5.0,13.0,61,0.00,,,0.00,meteohub,2013-03-20 15:44:00,
2013-03-20 11:49:00,37.0,25.7,29.88,WNW,283,8.0,13.0,63,0.00,,,0.00,meteohub,2013-03-20 15:49:00,
2013-03-20 11:54:00,37.0,24.8,29.88,WNW,285,7.0,12.0,61,0.00,,,0.00,meteohub,2013-03-20 15:54:00,
2013-03-20 11:59:00,37.0,26.4,29.89,West,278,7.0,16.0,65,0.00,,,0.00,meteohub,2013-03-20 15:59:00,
2013-03-20 12:04:00,37.0,25.2,29.88,WNW,285,10.0,16.0,62,0.00,,,0.00,meteohub,2013-03-20 16:04:00,
2013-03-20 12:09:00,37.0,26.4,29.89,WNW,287,6.0,16.0,65,0.00,,,0.00,meteohub,2013-03-20 16:09:00,
2013-03-20 12:14:00,37.0,25.2,29.88,West,281,9.0,14.0,62,0.00,,,0.00,meteohub,2013-03-20 16:14:00,
2013-03-20 12:19:00,37.0,26.4,29.89,WNW,288,9.0,14.0,65,0.00,,,0.00,meteohub,2013-03-20 16:19:00,
2013-03-20 12:24:00,37.2,27.0,29.88,WNW,285,9.0,14.0,66,0.00,,,0.00,meteohub,2013-03-20 16:24:00,
2013-03-20 12:29:00,37.2,26.6,29.88,WNW,295,9.0,14.0,65,0.00,,,0.00,meteohub,2013-03-20 16:29:00,
2013-03-20 12:34:00,37.2,26.2,29.88,West,280,9.0,13.0,64,0.00,,,0.00,meteohub,2013-03-20 16:34:00,
2013-03-20 12:39:00,37.2,26.6,29.88,WNW,288,10.0,13.0,65,0.00,,,0.00,meteohub,2013-03-20 16:39:00,
2013-03-20 12:44:00,37.2,25.3,29.88,West,280,6.0,12.0,62,0.00,,,0.00,meteohub,2013-03-20 16:44:00,
2013-03-20 12:49:00,37.6,27.3,29.88,WNW,297,7.0,13.0,66,0.00,,,0.00,meteohub,2013-03-20 16:49:00,
2013-03-20 12:54:00,37.8,26.6,29.88,WNW,284,8.0,13.0,64,0.00,,,0.00,meteohub,2013-03-20 16:54:00,
2013-03-20 12:59:00,37.8,26.2,29.88,WNW,290,10.0,11.0,63,0.00,,,0.00,meteohub,2013-03-20 16:59:00,
2013-03-20 13:04:00,37.9,27.1,29.88,WNW,287,8.0,10.0,65,0.00,,,0.00,meteohub,2013-03-20 17:04:00,
2013-03-20 13:09:00,37.9,26.4,29.88,WNW,284,5.0,10.0,63,0.00,,,0.00,meteohub,2013-03-20 17:09:00,
2013-03-20 13:14:00,38.1,26.2,29.88,West,276,8.0,11.0,62,0.00,,,0.00,meteohub,2013-03-20 17:14:00,
2013-03-20 13:19:00,38.1,26.2,29.88,WNW,295,6.0,11.0,62,0.00,,,0.00,meteohub,2013-03-20 17:19:00,
2013-03-20 13:24:00,38.3,26.1,29.88,West,278,7.0,11.0,61,0.00,,,0.00,meteohub,2013-03-20 17:24:00,
2013-03-20 13:29:00,38.5,27.7,29.88,WNW,295,4.0,11.0,65,0.00,,,0.00,meteohub,2013-03-20 17:29:00,
2013-03-20 13:34:00,38.7,27.1,29.87,West,280,6.0,9.0,63,0.00,,,0.00,meteohub,2013-03-20 17:34:00,
2013-03-20 13:39:00,38.7,26.4,29.88,WNW,285,6.0,9.0,61,0.00,,,0.00,meteohub,2013-03-20 17:39:00,
2013-03-20 13:44:00,38.8,27.0,29.87,WNW,298,6.0,9.0,62,0.00,,,0.00,meteohub,2013-03-20 17:44:00,
2013-03-20 13:49:00,38.8,26.1,29.87,WNW,287,5.0,9.0,60,0.00,,,0.00,meteohub,2013-03-20 17:49:00,
2013-03-20 13:54:00,38.8,26.1,29.87,WNW,291,5.0,9.0,60,0.00,,,0.00,meteohub,2013-03-20 17:54:00,
2013-03-20 13:59:00,39.0,25.5,29.87,West,280,6.0,9.0,58,0.00,,,0.00,meteohub,2013-03-20 17:59:00,
2013-03-20 14:04:00,39.4,27.5,29.87,WNW,284,6.0,9.0,62,0.00,,,0.00,meteohub,2013-03-20 18:04:00,
2013-03-20 14:10:00,39.2,26.4,29.87,West,269,4.0,8.0,60,0.00,,,0.00,meteohub,2013-03-20 18:10:00,
2013-03-20 14:15:00,39.4,27.1,29.87,West,278,7.0,8.0,61,0.00,,,0.00,meteohub,2013-03-20 18:15:00,
2013-03-20 14:20:00,39.2,27.0,29.86,WNW,289,6.0,8.0,61,0.00,,,0.00,meteohub,2013-03-20 18:20:00,
2013-03-20 14:25:00,39.6,27.7,29.86,West,274,7.0,10.0,62,0.00,,,0.00,meteohub,2013-03-20 18:25:00,
2013-03-20 14:30:00,39.6,26.8,29.86,WNW,290,5.0,10.0,60,0.00,,,0.00,meteohub,2013-03-20 18:30:00,
2013-03-20 14:35:00,39.6,26.4,29.86,West,271,7.0,10.0,59,0.00,,,0.00,meteohub,2013-03-20 18:35:00,
2013-03-20 14:40:00,39.7,26.6,29.85,West,280,5.0,10.0,59,0.00,,,0.00,meteohub,2013-03-20 18:40:00,
2013-03-20 14:45:00,39.9,27.5,29.85,West,278,7.0,10.0,61,0.00,,,0.00,meteohub,2013-03-20 18:45:00,
2013-03-20 14:50:00,40.1,27.3,29.85,WNW,287,6.0,9.0,60,0.00,,,0.00,meteohub,2013-03-20 18:50:00,
2013-03-20 14:55:00,40.1,27.7,29.85,WNW,293,5.0,9.0,61,0.00,,,0.00,meteohub,2013-03-20 18:55:00,
2013-03-20 15:00:00,39.9,28.0,29.85,WNW,287,5.0,8.0,62,0.00,,,0.00,meteohub,2013-03-20 19:00:00,
2013-03-20 15:05:00,40.1,28.0,29.85,WNW,289,5.0,8.0,62,0.00,,,0.00,meteohub,2013-03-20 19:05:00,
2013-03-20 15:10:00,40.1,27.0,29.84,WNW,290,4.0,8.0,59,0.00,,,0.00,meteohub,2013-03-20 19:10:00,
2013-03-20 15:15:00,40.3,26.6,29.84,WNW,287,4.0,8.0,58,0.00,,,0.00,meteohub,2013-03-20 19:15:00,
2013-03-20 15:20:00,40.1,27.7,29.84,WNW,285,4.0,8.0,61,0.00,,,0.00,meteohub,2013-03-20 19:20:00,
2013-03-20 15:25:00,40.1,27.0,29.84,WNW,293,5.0,8.0,59,0.00,,,0.00,meteohub,2013-03-20 19:25:00,
2013-03-20 15:30:00,40.1,27.0,29.84,WNW,289,5.0,8.0,59,0.00,,,0.00,meteohub,2013-03-20 19:30:00,
2013-03-20 15:35:00,40.3,27.5,29.84,West,277,5.0,9.0,60,0.00,,,0.00,meteohub,2013-03-20 19:35:00,
2013-03-20 15:40:00,40.5,28.0,29.84,West,269,6.0,9.0,61,0.00,,,0.00,meteohub,2013-03-20 19:40:00,
2013-03-20 15:45:00,40.5,28.0,29.83,WNW,285,6.0,8.0,61,0.00,,,0.00,meteohub,2013-03-20 19:45:00,
2013-03-20 15:50:00,40.5,27.7,29.84,West,280,4.0,11.0,60,0.00,,,0.00,meteohub,2013-03-20 19:50:00,
2013-03-20 15:55:00,40.5,28.4,29.84,WNW,288,4.0,11.0,62,0.00,,,0.00,meteohub,2013-03-20 19:55:00,
2013-03-20 16:00:00,40.5,28.9,29.83,WNW,285,4.0,11.0,63,0.00,,,0.00,meteohub,2013-03-20 20:00:00,
2013-03-20 16:05:00,40.6,28.6,29.83,WNW,282,5.0,9.0,62,0.00,,,0.00,meteohub,2013-03-20 20:05:00,
2013-03-20 16:10:00,40.6,28.2,29.83,WNW,289,6.0,9.0,61,0.00,,,0.00,meteohub,2013-03-20 20:10:00,
2013-03-20 16:15:00,40.6,27.9,29.83,WNW,290,6.0,11.0,60,0.00,,,0.00,meteohub,2013-03-20 20:15:00,
2013-03-20 16:20:00,40.6,28.6,29.83,WNW,297,6.0,11.0,62,0.00,,,0.00,meteohub,2013-03-20 20:20:00,
2013-03-20 16:25:00,40.8,28.4,29.83,WNW,300,5.0,11.0,61,0.00,,,0.00,meteohub,2013-03-20 20:25:00,
2013-03-20 16:30:00,40.8,28.8,29.83,WNW,290,6.0,9.0,62,0.00,,,0.00,meteohub,2013-03-20 20:30:00,
2013-03-20 16:35:00,40.8,28.8,29.83,WNW,290,4.0,10.0,62,0.00,,,0.00,meteohub,2013-03-20 20:35:00,
2013-03-20 16:40:00,41.2,29.1,29.83,WNW,285,5.0,10.0,62,0.00,,,0.00,meteohub,2013-03-20 20:40:00,
2013-03-20 16:45:00,40.5,28.9,29.83,WNW,301,7.0,8.0,63,0.00,,,0.00,meteohub,2013-03-20 20:45:00,
2013-03-20 16:50:00,40.6,28.6,29.83,WNW,285,4.0,9.0,62,0.00,,,0.00,meteohub,2013-03-20 20:50:00,
2013-03-20 16:55:00,41.0,28.9,29.83,WNW,297,5.0,9.0,62,0.00,,,0.00,meteohub,2013-03-20 20:55:00,
2013-03-20 17:00:00,41.2,28.8,29.83,WNW,295,7.0,9.0,61,0.00,,,0.00,meteohub,2013-03-20 21:00:00,
2013-03-20 17:05:00,41.2,29.5,29.83,WNW,297,6.0,9.0,63,0.00,,,0.00,meteohub,2013-03-20 21:05:00,
2013-03-20 17:10:00,41.2,29.1,29.83,WNW,288,4.0,9.0,62,0.00,,,0.00,meteohub,2013-03-20 21:10:00,
2013-03-20 17:15:00,41.4,30.6,29.83,West,281,3.0,9.0,65,0.00,,,0.00,meteohub,2013-03-20 21:15:00,
2013-03-20 17:20:00,40.8,29.7,29.83,WNW,283,5.0,8.0,64,0.00,,,0.00,meteohub,2013-03-20 21:20:00,
2013-03-20 17:25:00,40.6,30.2,29.83,WNW,286,4.0,7.0,66,0.00,,,0.00,meteohub,2013-03-20 21:25:00,
2013-03-20 17:30:00,41.2,31.1,29.83,WNW,288,4.0,7.0,67,0.00,,,0.00,meteohub,2013-03-20 21:30:00,
2013-03-20 17:35:00,41.4,31.3,29.83,WNW,287,4.0,6.0,67,0.00,,,0.00,meteohub,2013-03-20 21:35:00,
2013-03-20 17:40:00,41.5,31.1,29.83,West,280,3.0,6.0,66,0.00,,,0.00,meteohub,2013-03-20 21:40:00,
2013-03-20 17:45:00,41.5,31.8,29.83,WNW,283,3.0,5.0,68,0.00,,,0.00,meteohub,2013-03-20 21:45:00,
2013-03-20 17:50:00,41.5,30.7,29.83,West,281,5.0,5.0,65,0.00,,,0.00,meteohub,2013-03-20 21:50:00,
2013-03-20 17:55:00,41.5,30.7,29.83,WNW,282,4.0,6.0,65,0.00,,,0.00,meteohub,2013-03-20 21:55:00,
2013-03-20 18:00:00,41.4,30.6,29.83,West,280,4.0,6.0,65,0.00,,,0.00,meteohub,2013-03-20 22:00:00,
2013-03-20 18:05:00,41.4,30.9,29.84,WNW,291,2.0,6.0,66,0.00,,,0.00,meteohub,2013-03-20 22:05:00,
2013-03-20 18:10:00,41.2,30.7,29.84,West,261,4.0,6.0,66,0.00,,,0.00,meteohub,2013-03-20 22:10:00,
2013-03-20 18:15:00,41.2,30.7,29.84,SW,231,4.0,8.0,66,0.00,,,0.00,meteohub,2013-03-20 22:15:00,
2013-03-20 18:20:00,41.2,30.4,29.84,WSW,240,3.0,8.0,65,0.00,,,0.00,meteohub,2013-03-20 22:20:00,
2013-03-20 18:26:00,40.8,29.7,29.84,WSW,240,2.0,7.0,64,0.00,,,0.00,meteohub,2013-03-20 22:26:00,
2013-03-20 18:31:00,40.6,29.8,29.85,West,276,2.0,7.0,65,0.00,,,0.00,meteohub,2013-03-20 22:31:00,
2013-03-20 18:36:00,40.5,29.3,29.84,West,269,3.0,7.0,64,0.00,,,0.00,meteohub,2013-03-20 22:36:00,
2013-03-20 18:41:00,40.3,29.5,29.84,West,267,2.0,6.0,65,0.00,,,0.00,meteohub,2013-03-20 22:41:00,
2013-03-20 18:46:00,39.9,29.5,29.84,West,276,3.0,6.0,66,0.00,,,0.00,meteohub,2013-03-20 22:46:00,
2013-03-20 18:51:00,39.6,29.1,29.84,West,262,2.0,5.0,66,0.00,,,0.00,meteohub,2013-03-20 22:51:00,
2013-03-20 18:56:00,39.2,29.5,29.85,WNW,289,2.0,4.0,68,0.00,,,0.00,meteohub,2013-03-20 22:56:00,
2013-03-20 19:01:00,38.8,30.2,29.85,WNW,284,1.0,4.0,71,0.00,,,0.00,meteohub,2013-03-20 23:01:00,
2013-03-20 19:06:00,38.7,31.1,29.85,West,278,1.0,4.0,74,0.00,,,0.00,meteohub,2013-03-20 23:06:00,
2013-03-20 19:11:00,38.3,29.3,29.85,West,275,2.0,3.0,70,0.00,,,0.00,meteohub,2013-03-20 23:11:00,
2013-03-20 19:16:00,38.3,28.9,29.85,West,273,2.0,3.0,69,0.00,,,0.00,meteohub,2013-03-20 23:16:00,
2013-03-20 19:21:00,38.3,29.3,29.85,West,264,1.0,3.0,70,0.00,,,0.00,meteohub,2013-03-20 23:21:00,
2013-03-20 19:26:00,37.9,29.7,29.85,SW,215,0.0,3.0,72,0.00,,,0.00,meteohub,2013-03-20 23:26:00,
2013-03-20 19:31:00,37.8,29.1,29.85,West,259,1.0,4.0,71,0.00,,,0.00,meteohub,2013-03-20 23:31:00,
2013-03-20 19:36:00,37.6,29.1,29.86,SW,226,2.0,4.0,71,0.00,,,0.00,meteohub,2013-03-20 23:36:00,
2013-03-20 19:42:00,37.2,28.8,29.85,WSW,240,1.0,4.0,71,0.00,,,0.00,meteohub,2013-03-20 23:42:00,
2013-03-20 19:47:00,37.2,27.7,29.85,SW,234,2.0,4.0,68,0.00,,,0.00,meteohub,2013-03-20 23:47:00,
2013-03-20 19:52:00,37.4,27.5,29.85,SSW,204,0.0,4.0,67,0.00,,,0.00,meteohub,2013-03-20 23:52:00,
2013-03-20 19:57:00,37.4,27.5,29.85,SW,225,0.0,4.0,67,0.00,,,0.00,meteohub,2013-03-20 23:57:00,
2013-03-20 20:02:00,37.2,27.7,29.85,SSW,203,0.0,4.0,68,0.00,,,0.00,meteohub,2013-03-21 00:02:00,
2013-03-20 20:07:00,36.9,27.7,29.85,SSW,197,1.0,4.0,69,0.00,,,0.00,meteohub,2013-03-21 00:07:00,
2013-03-20 20:12:00,36.7,27.9,29.85,South,179,1.0,2.0,70,0.00,,,0.00,meteohub,2013-03-21 00:12:00,
2013-03-20 20:17:00,36.7,28.2,29.85,South,176,1.0,2.0,71,0.00,,,0.00,meteohub,2013-03-21 00:17:00,
2013-03-20 20:22:00,36.7,28.2,29.85,SSW,194,1.0,2.0,71,0.00,,,0.00,meteohub,2013-03-21 00:22:00,
2013-03-20 20:27:00,36.7,28.6,29.85,SSE,160,2.0,2.0,72,0.00,,,0.00,meteohub,2013-03-21 00:27:00,
2013-03-20 20:32:00,36.9,28.8,29.85,South,186,1.0,2.0,72,0.00,,,0.00,meteohub,2013-03-21 00:32:00,
2013-03-20 20:37:00,36.9,28.4,29.85,SSE,168,1.0,2.0,71,0.00,,,0.00,meteohub,2013-03-21 00:37:00,
2013-03-20 20:42:00,36.9,27.3,29.85,SE,143,1.0,2.0,68,0.00,,,0.00,meteohub,2013-03-21 00:42:00,
2013-03-20 20:47:00,37.0,26.4,29.86,SE,145,4.0,4.0,65,0.00,,,0.00,meteohub,2013-03-21 00:47:00,
2013-03-20 20:52:00,37.0,25.2,29.86,SE,145,2.0,5.0,62,0.00,,,0.00,meteohub,2013-03-21 00:52:00,
2013-03-20 20:57:00,37.2,24.6,29.86,SSE,159,1.0,5.0,60,0.00,,,0.00,meteohub,2013-03-21 00:57:00,
2013-03-20 21:02:00,37.0,24.1,29.86,SSE,154,2.0,5.0,59,0.00,,,0.00,meteohub,2013-03-21 01:02:00,
2013-03-20 21:07:00,37.4,23.5,29.86,South,170,2.0,4.0,57,0.00,,,0.00,meteohub,2013-03-21 01:07:00,
2013-03-20 21:12:00,37.6,23.7,29.86,WSW,247,2.0,6.0,57,0.00,,,0.00,meteohub,2013-03-21 01:12:00,
2013-03-20 21:17:00,37.4,23.5,29.86,SW,228,3.0,6.0,57,0.00,,,0.00,meteohub,2013-03-21 01:17:00,
2013-03-20 21:22:00,37.6,23.4,29.86,SW,227,1.0,5.0,56,0.00,,,0.00,meteohub,2013-03-21 01:22:00,
2013-03-20 21:28:00,37.9,23.2,29.86,South,172,1.0,5.0,55,0.00,,,0.00,meteohub,2013-03-21 01:28:00,
2013-03-20 21:33:00,37.9,22.8,29.86,SW,219,3.0,8.0,54,0.00,,,0.00,meteohub,2013-03-21 01:33:00,
2013-03-20 21:38:00,38.1,22.5,29.86,SW,228,2.0,8.0,53,0.00,,,0.00,meteohub,2013-03-21 01:38:00,
2013-03-20 21:43:00,38.5,21.9,29.86,WSW,238,1.0,7.0,51,0.00,,,0.00,meteohub,2013-03-21 01:43:00,
2013-03-20 21:48:00,38.7,22.1,29.86,WSW,239,3.0,7.0,51,0.00,,,0.00,meteohub,2013-03-21 01:48:00,
2013-03-20 21:53:00,38.8,22.3,29.86,SW,236,4.0,7.0,51,0.00,,,0.00,meteohub,2013-03-21 01:53:00,
2013-03-20 21:58:00,39.0,22.5,29.86,SW,217,2.0,7.0,51,0.00,,,0.00,meteohub,2013-03-21 01:58:00,
2013-03-20 22:03:00,39.0,22.8,29.86,WSW,257,1.0,6.0,52,0.00,,,0.00,meteohub,2013-03-21 02:03:00,
2013-03-20 22:08:00,39.0,22.5,29.86,West,273,1.0,6.0,51,0.00,,,0.00,meteohub,2013-03-21 02:08:00,
2013-03-20 22:13:00,39.0,22.8,29.86,SW,236,1.0,5.0,52,0.00,,,0.00,meteohub,2013-03-21 02:13:00,
2013-03-20 22:18:00,39.0,22.8,29.86,SSW,204,1.0,5.0,52,0.00,,,0.00,meteohub,2013-03-21 02:18:00,
2013-03-20 22:23:00,39.0,22.5,29.86,West,278,2.0,5.0,51,0.00,,,0.00,meteohub,2013-03-21 02:23:00,
2013-03-20 22:28:00,39.0,22.8,29.86,SSW,208,2.0,5.0,52,0.00,,,0.00,meteohub,2013-03-21 02:28:00,
2013-03-20 22:33:00,39.0,22.8,29.87,SW,221,2.0,6.0,52,0.00,,,0.00,meteohub,2013-03-21 02:33:00,
2013-03-20 22:38:00,39.0,22.8,29.87,SW,222,2.0,6.0,52,0.00,,,0.00,meteohub,2013-03-21 02:38:00,
2013-03-20 22:43:00,39.0,22.8,29.87,West,276,5.0,6.0,52,0.00,,,0.00,meteohub,2013-03-21 02:43:00,
2013-03-20 22:48:00,39.0,23.7,29.86,SW,236,2.0,6.0,54,0.00,,,0.00,meteohub,2013-03-21 02:48:00,
2013-03-20 22:53:00,39.0,23.7,29.86,WSW,246,1.0,6.0,54,0.00,,,0.00,meteohub,2013-03-21 02:53:00,
2013-03-20 22:58:00,39.2,23.5,29.86,West,264,3.0,7.0,53,0.00,,,0.00,meteohub,2013-03-21 02:58:00,
2013-03-20 23:03:00,38.7,23.4,29.86,SSE,162,2.0,7.0,54,0.00,,,0.00,meteohub,2013-03-21 03:03:00,
2013-03-20 23:08:00,38.5,23.4,29.86,SW,227,2.0,7.0,54,0.00,,,0.00,meteohub,2013-03-21 03:08:00,
2013-03-20 23:13:00,38.7,23.4,29.86,SW,236,4.0,6.0,54,0.00,,,0.00,meteohub,2013-03-21 03:13:00,
2013-03-20 23:18:00,38.5,23.4,29.86,WSW,252,3.0,6.0,54,0.00,,,0.00,meteohub,2013-03-21 03:18:00,
2013-03-20 23:23:00,38.5,22.5,29.86,WNW,285,3.0,6.0,52,0.00,,,0.00,meteohub,2013-03-21 03:23:00,
2013-03-20 23:28:00,38.7,22.6,29.86,West,273,2.0,5.0,52,0.00,,,0.00,meteohub,2013-03-21 03:28:00,
2013-03-20 23:33:00,38.8,22.6,29.86,SW,231,3.0,5.0,52,0.00,,,0.00,meteohub,2013-03-21 03:33:00,
2013-03-20 23:38:00,38.7,23.4,29.86,SSE,167,3.0,5.0,54,0.00,,,0.00,meteohub,2013-03-21 03:38:00,
2013-03-20 23:43:00,37.9,23.7,29.87,SSW,203,1.0,5.0,56,0.00,,,0.00,meteohub,2013-03-21 03:43:00,
2013-03-20 23:48:00,37.9,23.7,29.87,West,262,2.0,5.0,56,0.00,,,0.00,meteohub,2013-03-21 03:48:00,
2013-03-20 23:53:00,37.9,23.7,29.87,South,172,2.0,6.0,56,0.00,,,0.00,meteohub,2013-03-21 03:53:00,
2013-03-20 23:58:00,37.4,23.9,29.87,WSW,252,2.0,6.0,58,0.00,,,0.00,meteohub,2013-03-21 03:58:00,